Time,TemperatureF,DewpointF,PressureIn,WindDirection,WindDirectionDegrees,WindSpeedMPH,WindSpeedGustMPH,Humidity,HourlyPrecipIn,Conditions,Clouds,dailyrainin,SoftwareType,DateUTC
2013-01-22 00:01:00,25.5,21.4,30.32,North,11,0.0,3.0,84,0.00,,---,0.00,VWS V14.01,2013-01-22 06:01:00,
2013-01-22 00:05:00,25.4,21.0,30.32,North,11,0.0,0.0,83,0.00,,---,0.00,VWS V14.01,2013-01-22 06:05:00,
2013-01-22 00:10:00,25.3,20.9,30.32,North,11,0.0,0.0,83,0.00,,---,0.00,VWS V14.01,2013-01-22 06:10:00,
2013-01-22 00:15:00,25.1,21.0,30.32,North,11,0.0,0.0,84,0.00,,---,0.00,VWS V14.01,2013-01-22 06:15:00,
2013-01-22 00:20:00,25.0,20.9,30.32,North,11,0.0,0.0,84,0.00,,---,0.00,VWS V14.01,2013-01-22 06:20:00,
2013-01-22 00:25:00,24.8,20.9,30.32,North,11,0.0,0.0,85,0.00,,---,0.00,VWS V14.01,2013-01-22 06:25:00,
2013-01-22 00:31:00,24.8,21.2,30.32,North,11,0.0,0.0,86,0.00,,---,0.00,VWS V14.01,2013-01-22 06:31:00,
2013-01-22 00:36:00,24.8,21.2,30.32,North,11,0.0,0.0,86,0.00,,---,0.00,VWS V14.01,2013-01-22 06:36:00,
2013-01-22 00:41:00,24.9,21.3,30.32,North,11,0.0,0.0,86,0.00,,---,0.00,VWS V14.01,2013-01-22 06:41:00,
2013-01-22 00:46:00,24.9,21.3,30.32,North,11,0.0,0.0,86,0.00,,---,0.00,VWS V14.01,2013-01-22 06:46:00,
2013-01-22 00:51:00,25.0,21.4,30.32,North,11,0.0,0.0,86,0.00,,---,0.00,VWS V14.01,2013-01-22 06:51:00,
2013-01-22 00:56:00,25.0,21.4,30.32,North,11,0.0,0.0,86,0.00,,---,0.00,VWS V14.01,2013-01-22 06:56:00,
2013-01-22 01:01:00,25.0,21.4,30.32,North,11,0.0,0.0,86,0.00,,---,0.00,VWS V14.01,2013-01-22 07:01:00,
2013-01-22 01:06:00,24.9,21.3,30.33,North,11,0.0,0.0,86,0.00,,---,0.00,VWS V14.01,2013-01-22 07:06:00,
2013-01-22 01:11:00,25.1,21.5,30.33,North,11,1.0,2.0,86,0.00,,---,0.00,VWS V14.01,2013-01-22 07:11:00,
2013-01-22 01:16:00,25.1,21.5,30.33,North,11,1.0,2.0,86,0.00,,---,0.00,VWS V14.01,2013-01-22 07:16:00,
2013-01-22 01:21:00,25.1,21.5,30.33,North,11,0.0,2.0,86,0.00,,---,0.00,VWS V14.01,2013-01-22 07:21:00,
2013-01-22 01:26:00,25.0,21.4,30.33,North,11,1.0,2.0,86,0.00,,---,0.00,VWS V14.01,2013-01-22 07:26:00,
2013-01-22 01:31:00,25.0,21.4,30.33,North,11,1.0,2.0,86,0.00,,---,0.00,VWS V14.01,2013-01-22 07:31:00,
2013-01-22 01:36:00,24.9,21.0,30.33,North,11,0.0,1.0,85,0.00,,---,0.00,VWS V14.01,2013-01-22 07:36:00,
2013-01-22 01:41:00,24.9,21.3,30.33,North,11,0.0,1.0,86,0.00,,---,0.00,VWS V14.01,2013-01-22 07:41:00,
2013-01-22 01:46:00,24.8,20.9,30.33,North,11,0.0,1.0,85,0.00,,---,0.00,VWS V14.01,2013-01-22 07:46:00,
2013-01-22 01:51:00,24.7,21.1,30.33,North,11,0.0,1.0,86,0.00,,---,0.00,VWS V14.01,2013-01-22 07:51:00,
2013-01-22 01:56:00,24.7,21.1,30.33,North,11,0.0,1.0,86,0.00,,---,0.00,VWS V14.01,2013-01-22 07:56:00,
2013-01-22 02:01:00,24.6,21.0,30.34,North,11,0.0,1.0,86,0.00,,---,0.00,VWS V14.01,2013-01-22 08:01:00,
2013-01-22 02:06:00,24.5,20.9,30.34,North,11,0.0,0.0,86,0.00,,---,0.00,VWS V14.01,2013-01-22 08:06:00,
2013-01-22 02:11:00,24.5,20.9,30.33,North,11,0.0,0.0,86,0.00,,---,0.00,VWS V14.01,2013-01-22 08:11:00,
2013-01-22 02:16:00,24.5,20.9,30.34,North,11,0.0,1.0,86,0.00,,---,0.00,VWS V14.01,2013-01-22 08:16:00,
2013-01-22 02:21:00,24.5,20.9,30.34,North,11,0.0,1.0,86,0.00,,---,0.00,VWS V14.01,2013-01-22 08:21:00,
2013-01-22 02:26:00,24.4,20.8,30.34,North,11,0.0,1.0,86,0.00,,---,0.00,VWS V14.01,2013-01-22 08:26:00,
2013-01-22 02:31:00,24.3,20.7,30.34,North,11,0.0,1.0,86,0.00,,---,0.00,VWS V14.01,2013-01-22 08:31:00,
2013-01-22 02:36:00,24.1,20.5,30.34,North,11,0.0,0.0,86,0.00,,---,0.00,VWS V14.01,2013-01-22 08:36:00,
2013-01-22 02:41:00,24.0,20.4,30.34,North,11,0.0,0.0,86,0.00,,---,0.00,VWS V14.01,2013-01-22 08:41:00,
2013-01-22 02:46:00,23.9,20.6,30.34,North,11,0.0,0.0,87,0.00,,---,0.00,VWS V14.01,2013-01-22 08:46:00,
2013-01-22 02:51:00,24.0,20.7,30.34,North,11,0.0,0.0,87,0.00,,---,0.00,VWS V14.01,2013-01-22 08:51:00,
2013-01-22 02:56:00,24.0,20.7,30.34,North,11,0.0,0.0,87,0.00,,---,0.00,VWS V14.01,2013-01-22 08:56:00,
2013-01-22 03:01:00,24.0,20.7,30.33,North,11,0.0,0.0,87,0.00,,---,0.00,VWS V14.01,2013-01-22 09:01:00,
2013-01-22 03:06:00,23.9,20.6,30.33,North,11,0.0,0.0,87,0.00,,---,0.00,VWS V14.01,2013-01-22 09:06:00,
2013-01-22 03:11:00,23.8,20.5,30.33,North,11,0.0,0.0,87,0.00,,---,0.00,VWS V14.01,2013-01-22 09:11:00,
2013-01-22 03:16:00,23.7,20.4,30.33,North,11,0.0,0.0,87,0.00,,---,0.00,VWS V14.01,2013-01-22 09:16:00,
2013-01-22 03:21:00,23.6,20.6,30.33,North,11,0.0,0.0,88,0.00,,---,0.00,VWS V14.01,2013-01-22 09:21:00,
2013-01-22 03:26:00,23.5,20.5,30.33,North,11,0.0,0.0,88,0.00,,---,0.00,VWS V14.01,2013-01-22 09:26:00,
2013-01-22 03:31:00,23.4,20.4,30.33,North,11,0.0,0.0,88,0.00,,---,0.00,VWS V14.01,2013-01-22 09:31:00,
2013-01-22 03:36:00,23.3,20.3,30.33,North,11,0.0,0.0,88,0.00,,---,0.00,VWS V14.01,2013-01-22 09:36:00,
2013-01-22 03:41:00,23.3,20.5,30.32,North,11,0.0,0.0,89,0.00,,---,0.00,VWS V14.01,2013-01-22 09:41:00,
2013-01-22 03:46:00,23.3,20.5,30.33,North,11,1.0,2.0,89,0.00,,---,0.00,VWS V14.01,2013-01-22 09:46:00,
2013-01-22 03:51:00,23.3,20.5,30.33,North,11,0.0,2.0,89,0.00,,---,0.00,VWS V14.01,2013-01-22 09:51:00,
2013-01-22 03:56:00,23.2,20.5,30.32,North,11,0.0,2.0,89,0.00,,---,0.00,VWS V14.01,2013-01-22 09:56:00,
2013-01-22 04:01:00,23.2,20.5,30.32,North,11,0.0,2.0,89,0.00,,---,0.00,VWS V14.01,2013-01-22 10:01:00,
2013-01-22 04:06:00,23.2,20.7,30.33,North,11,2.0,2.0,90,0.00,,---,0.00,VWS V14.01,2013-01-22 10:06:00,
2013-01-22 04:11:00,23.3,20.8,30.33,North,11,0.0,2.0,90,0.00,,---,0.00,VWS V14.01,2013-01-22 10:11:00,
2013-01-22 04:15:00,23.3,20.8,30.33,North,11,0.0,2.0,90,0.00,,---,0.00,VWS V14.01,2013-01-22 10:15:00,
2013-01-22 04:20:00,23.3,20.5,30.34,North,11,0.0,2.0,89,0.00,,---,0.00,VWS V14.01,2013-01-22 10:20:00,
2013-01-22 04:25:00,23.3,20.5,30.34,North,11,0.0,2.0,89,0.00,,---,0.00,VWS V14.01,2013-01-22 10:25:00,
2013-01-22 04:30:00,23.2,20.5,30.34,North,11,0.0,2.0,89,0.00,,---,0.00,VWS V14.01,2013-01-22 10:30:00,
2013-01-22 04:35:00,23.2,20.5,30.34,North,11,0.0,0.0,89,0.00,,---,0.00,VWS V14.01,2013-01-22 10:35:00,
2013-01-22 04:40:00,23.1,20.4,30.34,North,11,0.0,0.0,89,0.00,,---,0.00,VWS V14.01,2013-01-22 10:40:00,
2013-01-22 04:45:00,23.1,20.1,30.35,North,11,0.0,0.0,88,0.00,,---,0.00,VWS V14.01,2013-01-22 10:45:00,
2013-01-22 04:50:00,23.0,20.0,30.35,North,11,0.0,0.0,88,0.00,,---,0.00,VWS V14.01,2013-01-22 10:50:00,
2013-01-22 04:55:00,22.9,19.9,30.34,North,11,0.0,0.0,88,0.00,,---,0.00,VWS V14.01,2013-01-22 10:55:00,
2013-01-22 05:00:00,22.8,19.8,30.34,North,11,0.0,0.0,88,0.00,,---,0.00,VWS V14.01,2013-01-22 11:00:00,
2013-01-22 05:05:00,22.7,19.7,30.34,North,11,0.0,0.0,88,0.00,,---,0.00,VWS V14.01,2013-01-22 11:05:00,
2013-01-22 05:10:00,22.7,19.7,30.34,North,11,0.0,0.0,88,0.00,,---,0.00,VWS V14.01,2013-01-22 11:10:00,
2013-01-22 05:15:00,22.7,19.7,30.35,North,11,1.0,1.0,88,0.00,,---,0.00,VWS V14.01,2013-01-22 11:15:00,
2013-01-22 05:20:00,22.7,20.0,30.35,North,11,1.0,2.0,89,0.00,,---,0.00,VWS V14.01,2013-01-22 11:20:00,
2013-01-22 05:25:00,22.7,20.0,30.36,North,11,2.0,2.0,89,0.00,,---,0.00,VWS V14.01,2013-01-22 11:25:00,
2013-01-22 05:30:00,22.7,20.0,30.35,North,11,0.0,2.0,89,0.00,,---,0.00,VWS V14.01,2013-01-22 11:30:00,
2013-01-22 05:35:00,22.6,19.9,30.35,North,11,0.0,0.0,89,0.00,,---,0.00,VWS V14.01,2013-01-22 11:35:00,
2013-01-22 05:40:00,22.5,19.5,30.36,North,11,0.0,0.0,88,0.00,,---,0.00,VWS V14.01,2013-01-22 11:40:00,
2013-01-22 05:45:00,22.4,19.4,30.36,North,11,0.0,0.0,88,0.00,,---,0.00,VWS V14.01,2013-01-22 11:45:00,
2013-01-22 05:50:00,22.4,19.7,30.36,North,11,0.0,1.0,89,0.00,,---,0.00,VWS V14.01,2013-01-22 11:50:00,
2013-01-22 05:55:00,22.4,19.7,30.36,North,11,0.0,1.0,89,0.00,,---,0.00,VWS V14.01,2013-01-22 11:55:00,
2013-01-22 06:01:00,22.3,19.3,30.36,North,11,2.0,2.0,88,0.00,,---,0.00,VWS V14.01,2013-01-22 12:01:00,
2013-01-22 06:06:00,22.3,19.3,30.36,North,11,1.0,2.0,88,0.00,,---,0.00,VWS V14.01,2013-01-22 12:06:00,
2013-01-22 06:10:00,22.4,19.4,30.37,NNE,15,2.0,4.0,88,0.00,,---,0.00,VWS V14.01,2013-01-22 12:10:00,
2013-01-22 06:15:00,22.7,19.4,30.37,NNE,13,3.0,4.0,87,0.00,,---,0.00,VWS V14.01,2013-01-22 12:15:00,
2013-01-22 06:20:00,23.1,19.3,30.37,NNE,30,2.0,5.0,85,0.00,,---,0.00,VWS V14.01,2013-01-22 12:20:00,
2013-01-22 06:25:00,23.7,19.0,30.37,NE,44,5.0,5.0,82,0.00,,---,0.00,VWS V14.01,2013-01-22 12:25:00,
2013-01-22 06:30:00,24.1,18.8,30.37,NE,52,6.0,6.0,80,0.00,,---,0.00,VWS V14.01,2013-01-22 12:30:00,
2013-01-22 06:35:00,24.4,18.8,30.38,NE,38,4.0,5.0,79,0.00,,---,0.00,VWS V14.01,2013-01-22 12:35:00,
2013-01-22 06:40:00,24.4,18.5,30.38,NE,46,2.0,6.0,78,0.00,,---,0.00,VWS V14.01,2013-01-22 12:40:00,
2013-01-22 06:45:00,24.5,18.3,30.37,NE,49,2.0,6.0,77,0.00,,---,0.00,VWS V14.01,2013-01-22 12:45:00,
2013-01-22 06:50:00,24.6,18.1,30.38,NE,36,3.0,6.0,76,0.00,,---,0.00,VWS V14.01,2013-01-22 12:50:00,
2013-01-22 06:55:00,24.7,18.2,30.38,NE,42,3.0,6.0,76,0.00,,---,0.00,VWS V14.01,2013-01-22 12:55:00,
2013-01-22 07:00:00,24.8,18.3,30.38,NE,35,3.0,6.0,76,0.00,,---,0.00,VWS V14.01,2013-01-22 13:00:00,
2013-01-22 07:05:00,24.8,18.3,30.38,NNE,32,1.0,3.0,76,0.00,,---,0.00,VWS V14.01,2013-01-22 13:05:00,
2013-01-22 07:10:00,24.8,18.3,30.38,ENE,59,1.0,4.0,76,0.00,,---,0.00,VWS V14.01,2013-01-22 13:10:00,
2013-01-22 07:15:00,24.9,18.4,30.38,NE,43,2.0,5.0,76,0.00,,---,0.00,VWS V14.01,2013-01-22 13:15:00,
2013-01-22 07:20:00,25.0,18.8,30.38,ENE,78,2.0,5.0,77,0.00,,---,0.00,VWS V14.01,2013-01-22 13:20:00,
2013-01-22 07:25:00,25.2,19.0,30.38,NE,40,3.0,5.0,77,0.00,,---,0.00,VWS V14.01,2013-01-22 13:25:00,
2013-01-22 07:30:00,25.3,19.1,30.38,ENE,59,5.0,5.0,77,0.00,,---,0.00,VWS V14.01,2013-01-22 13:30:00,
2013-01-22 07:35:00,25.4,18.9,30.38,NE,52,2.0,5.0,76,0.00,,---,0.00,VWS V14.01,2013-01-22 13:35:00,
2013-01-22 07:40:00,25.5,19.0,30.38,NE,45,6.0,8.0,76,0.00,,---,0.00,VWS V14.01,2013-01-22 13:40:00,
2013-01-22 07:45:00,25.5,18.7,30.39,NE,54,4.0,9.0,75,0.00,,---,0.00,VWS V14.01,2013-01-22 13:45:00,
2013-01-22 07:50:00,25.5,18.4,30.39,WSW,247,3.0,9.0,74,0.00,,---,0.00,VWS V14.01,2013-01-22 13:50:00,
2013-01-22 07:55:00,25.6,18.5,30.40,NNE,25,4.0,9.0,74,0.00,,---,0.00,VWS V14.01,2013-01-22 13:55:00,
2013-01-22 08:00:00,26.0,18.5,30.40,NE,54,3.0,9.0,73,0.00,,---,0.00,VWS V14.01,2013-01-22 14:00:00,
2013-01-22 08:05:00,26.4,18.6,30.40,NNE,32,1.0,4.0,72,0.00,,---,0.00,VWS V14.01,2013-01-22 14:05:00,
2013-01-22 08:10:00,26.7,18.6,30.41,North,5,4.0,8.0,71,0.00,,---,0.00,VWS V14.01,2013-01-22 14:10:00,
2013-01-22 08:15:00,26.9,18.8,30.41,NE,38,3.0,8.0,71,0.00,,---,0.00,VWS V14.01,2013-01-22 14:15:00,
2013-01-22 08:20:00,27.0,18.5,30.41,NE,44,5.0,8.0,70,0.00,,---,0.00,VWS V14.01,2013-01-22 14:20:00,
2013-01-22 08:25:00,27.0,18.2,30.41,NE,44,5.0,8.0,69,0.00,,---,0.00,VWS V14.01,2013-01-22 14:25:00,
2013-01-22 08:30:00,27.1,18.3,30.41,North,5,9.0,10.0,69,0.00,,---,0.00,VWS V14.01,2013-01-22 14:30:00,
2013-01-22 08:35:00,27.2,18.4,30.41,ENE,62,5.0,6.0,69,0.00,,---,0.00,VWS V14.01,2013-01-22 14:35:00,
2013-01-22 08:40:00,27.4,18.2,30.41,NNE,29,3.0,9.0,68,0.00,,---,0.00,VWS V14.01,2013-01-22 14:40:00,
2013-01-22 08:45:00,27.5,17.6,30.41,NE,35,10.0,10.0,66,0.00,,---,0.00,VWS V14.01,2013-01-22 14:45:00,
2013-01-22 08:50:00,27.9,18.0,30.42,ENE,63,7.0,11.0,66,0.00,,---,0.00,VWS V14.01,2013-01-22 14:50:00,
2013-01-22 08:55:00,28.1,18.2,30.42,ENE,62,7.0,12.0,66,0.00,,---,0.00,VWS V14.01,2013-01-22 14:55:00,
2013-01-22 09:00:00,28.6,18.3,30.42,NE,54,6.0,13.0,65,0.00,,---,0.00,VWS V14.01,2013-01-22 15:00:00,
2013-01-22 09:05:00,28.9,18.6,30.42,NE,37,9.0,12.0,65,0.00,,---,0.00,VWS V14.01,2013-01-22 15:05:00,
2013-01-22 09:10:00,29.1,18.5,30.42,NE,56,5.0,12.0,64,0.00,,---,0.00,VWS V14.01,2013-01-22 15:10:00,
2013-01-22 09:15:00,29.5,18.5,30.42,ENE,57,8.0,12.0,63,0.00,,---,0.00,VWS V14.01,2013-01-22 15:15:00,
2013-01-22 09:20:00,29.5,17.7,30.42,NE,40,5.0,12.0,61,0.00,,---,0.00,VWS V14.01,2013-01-22 15:20:00,
2013-01-22 09:25:00,29.7,19.0,30.42,NNE,33,2.0,12.0,64,0.00,,---,0.00,VWS V14.01,2013-01-22 15:25:00,
2013-01-22 09:30:00,30.5,19.0,30.42,ENE,78,7.0,12.0,62,0.00,,---,0.00,VWS V14.01,2013-01-22 15:30:00,
2013-01-22 09:35:00,30.7,17.7,30.42,NE,52,5.0,9.0,58,0.00,,---,0.00,VWS V14.01,2013-01-22 15:35:00,
2013-01-22 09:40:00,30.6,16.8,30.42,ENE,57,5.0,9.0,56,0.00,,---,0.00,VWS V14.01,2013-01-22 15:40:00,
2013-01-22 09:45:00,30.8,16.5,30.43,NE,34,1.0,9.0,55,0.00,,---,0.00,VWS V14.01,2013-01-22 15:45:00,
2013-01-22 09:50:00,31.2,16.5,30.43,NE,44,1.0,9.0,54,0.00,,---,0.00,VWS V14.01,2013-01-22 15:50:00,
2013-01-22 09:55:00,31.8,17.5,30.43,ENE,76,5.0,9.0,55,0.00,,---,0.00,VWS V14.01,2013-01-22 15:55:00,
2013-01-22 10:00:00,32.4,17.6,30.43,East,96,6.0,9.0,54,0.00,,---,0.00,VWS V14.01,2013-01-22 16:00:00,
2013-01-22 10:05:00,32.5,16.4,30.43,East,84,6.0,7.0,51,0.00,,---,0.00,VWS V14.01,2013-01-22 16:05:00,
2013-01-22 10:10:00,32.8,17.1,30.43,NE,40,3.0,9.0,52,0.00,,---,0.00,VWS V14.01,2013-01-22 16:10:00,
2013-01-22 10:15:00,33.1,16.5,30.43,NE,42,2.0,9.0,50,0.00,,---,0.00,VWS V14.01,2013-01-22 16:15:00,
2013-01-22 10:20:00,33.0,15.0,30.43,North,5,4.0,9.0,47,0.00,,---,0.00,VWS V14.01,2013-01-22 16:20:00,
2013-01-22 10:25:00,32.9,15.4,30.43,East,92,2.0,9.0,48,0.00,,---,0.00,VWS V14.01,2013-01-22 16:25:00,
2013-01-22 10:30:00,32.9,15.4,30.43,NE,49,1.0,9.0,48,0.00,,---,0.00,VWS V14.01,2013-01-22 16:30:00,
2013-01-22 10:35:00,33.2,15.2,30.43,ENE,68,2.0,5.0,47,0.00,,---,0.00,VWS V14.01,2013-01-22 16:35:00,
2013-01-22 10:40:00,33.2,15.2,30.43,NNW,342,6.0,8.0,47,0.00,,---,0.00,VWS V14.01,2013-01-22 16:40:00,
2013-01-22 10:45:00,33.6,15.0,30.43,East,87,2.0,8.0,46,0.00,,---,0.00,VWS V14.01,2013-01-22 16:45:00,
2013-01-22 10:50:00,34.2,16.1,30.43,North,355,0.0,8.0,47,0.00,,---,0.00,VWS V14.01,2013-01-22 16:50:00,
2013-01-22 10:55:00,34.7,15.6,30.43,NE,51,3.0,8.0,45,0.00,,---,0.00,VWS V14.01,2013-01-22 16:55:00,
2013-01-22 11:00:00,34.8,15.6,30.43,NE,53,2.0,8.0,45,0.00,,---,0.00,VWS V14.01,2013-01-22 17:00:00,
2013-01-22 11:05:00,35.1,15.9,30.42,NNE,19,0.0,2.0,45,0.00,,---,0.00,VWS V14.01,2013-01-22 17:05:00,
2013-01-22 11:10:00,35.8,16.0,30.43,NE,46,3.0,7.0,44,0.00,,---,0.00,VWS V14.01,2013-01-22 17:10:00,
2013-01-22 11:15:00,36.0,16.7,30.42,NE,55,0.0,7.0,45,0.00,,---,0.00,VWS V14.01,2013-01-22 17:15:00,
2013-01-22 11:20:00,36.1,16.8,30.42,NE,39,2.0,7.0,45,0.00,,---,0.00,VWS V14.01,2013-01-22 17:20:00,
2013-01-22 11:25:00,36.4,16.0,30.41,East,81,3.0,8.0,43,0.00,,---,0.00,VWS V14.01,2013-01-22 17:25:00,
2013-01-22 11:30:00,36.6,15.7,30.41,NNW,344,2.0,8.0,42,0.00,,---,0.00,VWS V14.01,2013-01-22 17:30:00,
2013-01-22 11:35:00,36.7,15.8,30.41,North,11,2.0,5.0,42,0.00,,---,0.00,VWS V14.01,2013-01-22 17:35:00,
2013-01-22 11:40:00,37.1,16.7,30.41,North,350,0.0,5.0,43,0.00,,---,0.00,VWS V14.01,2013-01-22 17:40:00,
2013-01-22 11:45:00,37.7,16.1,30.40,ESE,116,3.0,5.0,41,0.00,,---,0.00,VWS V14.01,2013-01-22 17:45:00,
2013-01-22 11:50:00,37.9,16.3,30.40,SE,141,1.0,5.0,41,0.00,,---,0.00,VWS V14.01,2013-01-22 17:50:00,
2013-01-22 11:55:00,38.1,15.9,30.40,SE,134,1.0,5.0,40,0.00,,---,0.00,VWS V14.01,2013-01-22 17:55:00,
2013-01-22 12:00:00,38.1,16.5,30.39,ESE,119,1.0,5.0,41,0.00,,---,0.00,VWS V14.01,2013-01-22 18:00:00,
2013-01-22 12:05:00,38.4,16.2,30.39,North,9,4.0,5.0,40,0.00,,---,0.00,VWS V14.01,2013-01-22 18:05:00,
2013-01-22 12:10:00,38.4,16.8,30.39,NW,315,3.0,5.0,41,0.00,,---,0.00,VWS V14.01,2013-01-22 18:10:00,
2013-01-22 12:15:00,38.8,16.6,30.39,NNE,21,4.0,7.0,40,0.00,,---,0.00,VWS V14.01,2013-01-22 18:15:00,
2013-01-22 12:20:00,38.3,15.5,30.39,North,350,0.0,7.0,39,0.00,,---,0.00,VWS V14.01,2013-01-22 18:20:00,
2013-01-22 12:25:00,38.3,16.7,30.38,NNW,330,1.0,7.0,41,0.00,,---,0.00,VWS V14.01,2013-01-22 18:25:00,
2013-01-22 12:30:00,39.0,16.2,30.38,WNW,296,0.0,7.0,39,0.00,,---,0.00,VWS V14.01,2013-01-22 18:30:00,
2013-01-22 12:35:00,39.1,16.8,30.37,WNW,302,2.0,3.0,40,0.00,,---,0.00,VWS V14.01,2013-01-22 18:35:00,
2013-01-22 12:40:00,39.6,17.3,30.38,NW,323,1.0,4.0,40,0.00,,---,0.00,VWS V14.01,2013-01-22 18:40:00,
2013-01-22 12:45:00,39.6,16.1,30.38,ESE,123,3.0,8.0,38,0.00,,---,0.00,VWS V14.01,2013-01-22 18:45:00,
2013-01-22 12:50:00,39.3,17.0,30.38,NNW,329,3.0,8.0,40,0.00,,---,0.00,VWS V14.01,2013-01-22 18:50:00,
2013-01-22 12:55:00,39.9,17.0,30.38,ENE,62,1.0,8.0,39,0.00,,---,0.00,VWS V14.01,2013-01-22 18:55:00,
2013-01-22 13:00:00,39.5,16.0,30.38,NNE,30,0.0,8.0,38,0.00,,---,0.00,VWS V14.01,2013-01-22 19:00:00,
2013-01-22 13:05:00,39.5,16.6,30.38,ENE,61,3.0,3.0,39,0.00,,---,0.00,VWS V14.01,2013-01-22 19:05:00,
2013-01-22 13:10:00,39.9,17.0,30.38,NNW,340,4.0,5.0,39,0.00,,---,0.00,VWS V14.01,2013-01-22 19:10:00,
2013-01-22 13:15:00,40.0,17.1,30.37,NNE,12,2.0,5.0,39,0.00,,---,0.00,VWS V14.01,2013-01-22 19:15:00,
2013-01-22 13:20:00,40.3,17.3,30.37,NNW,338,3.0,8.0,39,0.00,,---,0.00,VWS V14.01,2013-01-22 19:20:00,
2013-01-22 13:25:00,40.3,16.7,30.37,NNE,15,6.0,8.0,38,0.00,,---,0.00,VWS V14.01,2013-01-22 19:25:00,
2013-01-22 13:30:00,40.1,17.1,30.37,NNW,346,3.0,8.0,39,0.00,,---,0.00,VWS V14.01,2013-01-22 19:30:00,
2013-01-22 13:35:00,40.5,17.5,30.38,NNE,32,0.0,4.0,39,0.00,,---,0.00,VWS V14.01,2013-01-22 19:35:00,
2013-01-22 13:40:00,41.3,17.6,30.37,NE,53,5.0,8.0,38,0.00,,---,0.00,VWS V14.01,2013-01-22 19:40:00,
2013-01-22 13:45:00,40.6,17.0,30.37,NE,48,6.0,10.0,38,0.00,,---,0.00,VWS V14.01,2013-01-22 19:45:00,
2013-01-22 13:50:00,40.0,17.1,30.37,NNE,25,2.0,10.0,39,0.00,,---,0.00,VWS V14.01,2013-01-22 19:50:00,
2013-01-22 13:55:00,39.9,17.0,30.36,NNE,13,4.0,10.0,39,0.00,,---,0.00,VWS V14.01,2013-01-22 19:55:00,
2013-01-22 14:00:00,39.8,18.0,30.36,West,273,2.0,10.0,41,0.00,,---,0.00,VWS V14.01,2013-01-22 20:00:00,
2013-01-22 14:05:00,40.1,17.7,30.36,East,96,2.0,5.0,40,0.00,,---,0.00,VWS V14.01,2013-01-22 20:05:00,
2013-01-22 14:10:00,39.8,17.5,30.36,ESE,105,3.0,5.0,40,0.00,,---,0.00,VWS V14.01,2013-01-22 20:10:00,
2013-01-22 14:15:00,39.6,17.9,30.36,East,86,6.0,8.0,41,0.00,,---,0.00,VWS V14.01,2013-01-22 20:15:00,
2013-01-22 14:20:00,39.1,17.4,30.36,NNE,30,4.0,9.0,41,0.00,,---,0.00,VWS V14.01,2013-01-22 20:20:00,
2013-01-22 14:25:00,38.7,17.0,30.37,NE,55,5.0,9.0,41,0.00,,---,0.00,VWS V14.01,2013-01-22 20:25:00,
2013-01-22 14:30:00,38.3,17.2,30.37,NE,42,4.0,9.0,42,0.00,,---,0.00,VWS V14.01,2013-01-22 20:30:00,
2013-01-22 14:35:00,38.2,18.2,30.36,ENE,75,4.0,6.0,44,0.00,,---,0.00,VWS V14.01,2013-01-22 20:35:00,
2013-01-22 14:40:00,38.2,17.7,30.36,ENE,61,7.0,8.0,43,0.00,,---,0.00,VWS V14.01,2013-01-22 20:40:00,
2013-01-22 14:45:00,38.1,17.6,30.36,ENE,70,4.0,9.0,43,0.00,,---,0.00,VWS V14.01,2013-01-22 20:45:00,
2013-01-22 14:50:00,38.0,18.0,30.36,NE,40,2.0,9.0,44,0.00,,---,0.00,VWS V14.01,2013-01-22 20:50:00,
2013-01-22 14:55:00,38.0,18.0,30.36,North,355,2.0,9.0,44,0.00,,---,0.00,VWS V14.01,2013-01-22 20:55:00,
2013-01-22 15:00:00,38.1,18.1,30.36,NNW,341,3.0,9.0,44,0.00,,---,0.00,VWS V14.01,2013-01-22 21:00:00,
2013-01-22 15:05:00,38.1,18.1,30.36,North,350,1.0,5.0,44,0.00,,---,0.00,VWS V14.01,2013-01-22 21:05:00,
2013-01-22 15:10:00,38.1,18.1,30.36,NNE,21,4.0,5.0,44,0.00,,---,0.00,VWS V14.01,2013-01-22 21:10:00,
2013-01-22 15:15:00,38.1,18.1,30.36,NNE,15,3.0,5.0,44,0.00,,---,0.00,VWS V14.01,2013-01-22 21:15:00,
2013-01-22 15:20:00,38.1,17.6,30.37,NE,56,3.0,5.0,43,0.00,,---,0.00,VWS V14.01,2013-01-22 21:20:00,
2013-01-22 15:25:00,37.9,18.5,30.36,NE,56,1.0,5.0,45,0.00,,---,0.00,VWS V14.01,2013-01-22 21:25:00,
2013-01-22 15:30:00,38.0,18.0,30.36,NE,49,1.0,5.0,44,0.00,,---,0.00,VWS V14.01,2013-01-22 21:30:00,
2013-01-22 15:31:00,38.0,18.0,30.36,NE,49,2.0,5.0,44,0.00,,---,0.00,VWS V14.01,2013-01-22 21:31:00,
2013-01-22 15:36:00,37.9,18.0,30.37,East,79,3.0,3.0,44,0.00,,---,0.00,VWS V14.01,2013-01-22 21:36:00,
2013-01-22 15:41:00,37.9,18.5,30.36,NE,38,0.0,6.0,45,0.00,,---,0.00,VWS V14.01,2013-01-22 21:41:00,
2013-01-22 15:46:00,37.8,18.4,30.37,NNE,24,3.0,6.0,45,0.00,,---,0.00,VWS V14.01,2013-01-22 21:46:00,
2013-01-22 15:51:00,37.6,18.2,30.36,ENE,63,3.0,7.0,45,0.00,,---,0.00,VWS V14.01,2013-01-22 21:51:00,
2013-01-22 15:56:00,37.5,18.1,30.36,ENE,67,4.0,7.0,45,0.00,,---,0.00,VWS V14.01,2013-01-22 21:56:00,
2013-01-22 16:01:00,37.4,18.0,30.37,NNE,33,7.0,8.0,45,0.00,,---,0.00,VWS V14.01,2013-01-22 22:01:00,
2013-01-22 16:06:00,37.2,18.3,30.36,NE,39,6.0,8.0,46,0.00,,---,0.00,VWS V14.01,2013-01-22 22:06:00,
2013-01-22 16:11:00,37.0,18.2,30.36,NNE,31,5.0,8.0,46,0.00,,---,0.00,VWS V14.01,2013-01-22 22:11:00,
2013-01-22 16:16:00,37.0,18.7,30.36,NE,47,5.0,8.0,47,0.00,,---,0.00,VWS V14.01,2013-01-22 22:16:00,
2013-01-22 16:21:00,36.8,18.5,30.36,NE,36,2.0,8.0,47,0.00,,---,0.00,VWS V14.01,2013-01-22 22:21:00,
2013-01-22 16:26:00,36.6,18.3,30.36,ENE,57,5.0,8.0,47,0.00,,---,0.00,VWS V14.01,2013-01-22 22:26:00,
2013-01-22 16:31:00,36.5,19.2,30.36,NE,56,2.0,8.0,49,0.00,,---,0.00,VWS V14.01,2013-01-22 22:31:00,
2013-01-22 16:36:00,36.4,18.6,30.36,NE,34,5.0,7.0,48,0.00,,---,0.00,VWS V14.01,2013-01-22 22:36:00,
2013-01-22 16:41:00,36.2,18.9,30.36,NE,45,4.0,7.0,49,0.00,,---,0.00,VWS V14.01,2013-01-22 22:41:00,
2013-01-22 16:46:00,36.1,18.8,30.36,NE,55,3.0,7.0,49,0.00,,---,0.00,VWS V14.01,2013-01-22 22:46:00,
2013-01-22 16:51:00,36.0,19.2,30.36,NE,40,5.0,7.0,50,0.00,,---,0.00,VWS V14.01,2013-01-22 22:51:00,
2013-01-22 16:56:00,36.0,19.2,30.35,ENE,65,7.0,7.0,50,0.00,,---,0.00,VWS V14.01,2013-01-22 22:56:00,
2013-01-22 17:01:00,35.9,19.1,30.36,North,5,4.0,7.0,50,0.00,,---,0.00,VWS V14.01,2013-01-22 23:01:00,
2013-01-22 17:05:00,35.7,18.9,30.35,NE,38,3.0,5.0,50,0.00,,---,0.00,VWS V14.01,2013-01-22 23:05:00,
2013-01-22 17:10:00,35.7,18.9,30.35,NE,42,4.0,6.0,50,0.00,,---,0.00,VWS V14.01,2013-01-22 23:10:00,
2013-01-22 17:15:00,35.6,19.3,30.35,NNE,12,2.0,8.0,51,0.00,,---,0.00,VWS V14.01,2013-01-22 23:15:00,
2013-01-22 17:20:00,35.6,19.3,30.35,NE,51,3.0,8.0,51,0.00,,---,0.00,VWS V14.01,2013-01-22 23:20:00,
2013-01-22 17:25:00,35.5,19.2,30.35,ENE,57,3.0,8.0,51,0.00,,---,0.00,VWS V14.01,2013-01-22 23:25:00,
2013-01-22 17:30:00,35.4,19.1,30.35,NE,40,6.0,8.0,51,0.00,,---,0.00,VWS V14.01,2013-01-22 23:30:00,
2013-01-22 17:35:00,35.4,19.1,30.35,NE,34,4.0,7.0,51,0.00,,---,0.00,VWS V14.01,2013-01-22 23:35:00,
2013-01-22 17:40:00,35.3,19.5,30.35,NE,35,2.0,7.0,52,0.00,,---,0.00,VWS V14.01,2013-01-22 23:40:00,
2013-01-22 17:45:00,35.3,19.5,30.35,NE,34,2.0,7.0,52,0.00,,---,0.00,VWS V14.01,2013-01-22 23:45:00,
2013-01-22 17:50:00,35.2,19.4,30.35,NE,54,3.0,7.0,52,0.00,,---,0.00,VWS V14.01,2013-01-22 23:50:00,
2013-01-22 17:55:00,35.2,19.4,30.35,NNE,32,5.0,7.0,52,0.00,,---,0.00,VWS V14.01,2013-01-22 23:55:00,
2013-01-22 18:00:00,35.2,19.8,30.35,NE,45,4.0,7.0,53,0.00,,---,0.00,VWS V14.01,2013-01-23 00:00:00,
2013-01-22 18:05:00,35.1,19.7,30.35,ENE,57,4.0,7.0,53,0.00,,---,0.00,VWS V14.01,2013-01-23 00:05:00,
2013-01-22 18:10:00,35.1,19.7,30.35,NE,44,2.0,7.0,53,0.00,,---,0.00,VWS V14.01,2013-01-23 00:10:00,
2013-01-22 18:15:00,35.1,19.7,30.34,ENE,65,3.0,7.0,53,0.00,,---,0.00,VWS V14.01,2013-01-23 00:15:00,
2013-01-22 18:20:00,35.1,19.7,30.34,ENE,74,5.0,9.0,53,0.00,,---,0.00,VWS V14.01,2013-01-23 00:20:00,
2013-01-22 18:25:00,35.0,19.6,30.34,NE,49,2.0,9.0,53,0.00,,---,0.00,VWS V14.01,2013-01-23 00:25:00,
2013-01-22 18:30:00,35.0,19.6,30.34,NE,42,5.0,9.0,53,0.00,,---,0.00,VWS V14.01,2013-01-23 00:30:00,
2013-01-22 18:35:00,35.0,19.6,30.34,NE,52,4.0,4.0,53,0.00,,---,0.00,VWS V14.01,2013-01-23 00:35:00,
2013-01-22 18:40:00,35.0,19.2,30.34,NE,51,3.0,7.0,52,0.00,,---,0.00,VWS V14.01,2013-01-23 00:40:00,
2013-01-22 18:45:00,35.0,19.2,30.33,ENE,57,3.0,7.0,52,0.00,,---,0.00,VWS V14.01,2013-01-23 00:45:00,
2013-01-22 18:50:00,34.9,19.1,30.33,ENE,64,3.0,7.0,52,0.00,,---,0.00,VWS V14.01,2013-01-23 00:50:00,
2013-01-22 18:55:00,34.9,18.6,30.33,ENE,59,3.0,7.0,51,0.00,,---,0.00,VWS V14.01,2013-01-23 00:55:00,
2013-01-22 19:00:00,34.8,18.5,30.33,ENE,67,4.0,7.0,51,0.00,,---,0.00,VWS V14.01,2013-01-23 01:00:00,
2013-01-22 19:05:00,34.7,18.4,30.33,ENE,59,5.0,6.0,51,0.00,,---,0.00,VWS V14.01,2013-01-23 01:05:00,
2013-01-22 19:10:00,34.7,18.9,30.33,ENE,69,5.0,7.0,52,0.00,,---,0.00,VWS V14.01,2013-01-23 01:10:00,
2013-01-22 19:15:00,34.7,18.9,30.33,ENE,61,4.0,8.0,52,0.00,,---,0.00,VWS V14.01,2013-01-23 01:15:00,
2013-01-22 19:20:00,34.7,18.9,30.33,ENE,65,1.0,8.0,52,0.00,,---,0.00,VWS V14.01,2013-01-23 01:20:00,
2013-01-22 19:25:00,34.7,18.9,30.33,East,82,8.0,8.0,52,0.00,,---,0.00,VWS V14.01,2013-01-23 01:25:00,
2013-01-22 19:30:00,34.6,17.9,30.33,NE,54,3.0,8.0,50,0.00,,---,0.00,VWS V14.01,2013-01-23 01:30:00,
2013-01-22 19:35:00,34.5,17.3,30.33,ENE,70,3.0,4.0,49,0.00,,---,0.00,VWS V14.01,2013-01-23 01:35:00,
2013-01-22 19:40:00,34.5,17.8,30.32,ENE,61,1.0,4.0,50,0.00,,---,0.00,VWS V14.01,2013-01-23 01:40:00,
2013-01-22 19:45:00,34.5,17.3,30.32,ENE,77,1.0,7.0,49,0.00,,---,0.00,VWS V14.01,2013-01-23 01:45:00,
2013-01-22 19:50:00,34.4,18.2,30.32,NE,54,3.0,7.0,51,0.00,,---,0.00,VWS V14.01,2013-01-23 01:50:00,
2013-01-22 19:55:00,34.5,17.8,30.32,NE,56,4.0,7.0,50,0.00,,---,0.00,VWS V14.01,2013-01-23 01:55:00,
2013-01-22 20:00:00,34.4,17.7,30.32,ENE,61,0.0,7.0,50,0.00,,---,0.00,VWS V14.01,2013-01-23 02:00:00,
2013-01-22 20:05:00,34.4,17.7,30.31,ESE,107,3.0,3.0,50,0.00,,---,0.00,VWS V14.01,2013-01-23 02:05:00,
2013-01-22 20:10:00,34.4,17.7,30.31,ENE,59,3.0,6.0,50,0.00,,---,0.00,VWS V14.01,2013-01-23 02:10:00,
2013-01-22 20:15:00,34.3,17.6,30.32,NE,52,1.0,7.0,50,0.00,,---,0.00,VWS V14.01,2013-01-23 02:15:00,
2013-01-22 20:20:00,34.3,18.1,30.32,ENE,57,8.0,8.0,51,0.00,,---,0.00,VWS V14.01,2013-01-23 02:20:00,
2013-01-22 20:25:00,34.3,17.6,30.32,ENE,73,5.0,8.0,50,0.00,,---,0.00,VWS V14.01,2013-01-23 02:25:00,
2013-01-22 20:30:00,34.3,18.1,30.32,NE,46,1.0,8.0,51,0.00,,---,0.00,VWS V14.01,2013-01-23 02:30:00,
2013-01-22 20:35:00,34.2,18.0,30.32,ENE,59,1.0,3.0,51,0.00,,---,0.00,VWS V14.01,2013-01-23 02:35:00,
2013-01-22 20:40:00,34.2,18.0,30.33,ENE,57,3.0,3.0,51,0.00,,---,0.00,VWS V14.01,2013-01-23 02:40:00,
2013-01-22 20:45:00,34.2,18.0,30.33,NE,44,3.0,5.0,51,0.00,,---,0.00,VWS V14.01,2013-01-23 02:45:00,
2013-01-22 20:50:00,34.1,18.3,30.33,NE,41,4.0,5.0,52,0.00,,---,0.00,VWS V14.01,2013-01-23 02:50:00,
2013-01-22 20:55:00,34.2,18.4,30.33,NE,34,5.0,7.0,52,0.00,,---,0.00,VWS V14.01,2013-01-23 02:55:00,
2013-01-22 21:00:00,34.2,18.4,30.33,NE,49,3.0,7.0,52,0.00,,---,0.00,VWS V14.01,2013-01-23 03:00:00,
2013-01-22 21:05:00,34.1,18.3,30.33,NE,51,5.0,5.0,52,0.00,,---,0.00,VWS V14.01,2013-01-23 03:05:00,
2013-01-22 21:10:00,34.0,18.2,30.33,North,350,0.0,5.0,52,0.00,,---,0.00,VWS V14.01,2013-01-23 03:10:00,
2013-01-22 21:15:00,34.0,18.2,30.33,NE,43,7.0,7.0,52,0.00,,---,0.00,VWS V14.01,2013-01-23 03:15:00,
2013-01-22 21:20:00,33.9,18.1,30.34,NNE,32,3.0,7.0,52,0.00,,---,0.00,VWS V14.01,2013-01-23 03:20:00,
2013-01-22 21:25:00,33.9,18.6,30.33,NE,35,0.0,7.0,53,0.00,,---,0.00,VWS V14.01,2013-01-23 03:25:00,
2013-01-22 21:30:00,33.9,18.6,30.34,ENE,58,0.0,7.0,53,0.00,,---,0.00,VWS V14.01,2013-01-23 03:30:00,
2013-01-22 21:35:00,33.9,18.6,30.33,ENE,58,1.0,2.0,53,0.00,,---,0.00,VWS V14.01,2013-01-23 03:35:00,
2013-01-22 21:40:00,33.9,18.6,30.33,ENE,65,2.0,4.0,53,0.00,,---,0.00,VWS V14.01,2013-01-23 03:40:00,
2013-01-22 21:45:00,33.9,18.6,30.33,NNE,32,2.0,4.0,53,0.00,,---,0.00,VWS V14.01,2013-01-23 03:45:00,
2013-01-22 21:50:00,33.8,18.9,30.33,NNE,26,3.0,4.0,54,0.00,,---,0.00,VWS V14.01,2013-01-23 03:50:00,
2013-01-22 21:55:00,33.8,18.9,30.33,ENE,60,0.0,4.0,54,0.00,,---,0.00,VWS V14.01,2013-01-23 03:55:00,
2013-01-22 22:00:00,33.8,18.9,30.34,NE,54,4.0,4.0,54,0.00,,---,0.00,VWS V14.01,2013-01-23 04:00:00,
2013-01-22 22:05:00,33.8,18.9,30.34,NE,36,1.0,2.0,54,0.00,,---,0.00,VWS V14.01,2013-01-23 04:05:00,
2013-01-22 22:10:00,33.8,18.9,30.34,NE,49,2.0,5.0,54,0.00,,---,0.00,VWS V14.01,2013-01-23 04:10:00,
2013-01-22 22:15:00,33.8,18.9,30.34,NE,49,2.0,5.0,54,0.00,,---,0.00,VWS V14.01,2013-01-23 04:15:00,
2013-01-22 22:20:00,33.8,18.9,30.34,NE,38,2.0,5.0,54,0.00,,---,0.00,VWS V14.01,2013-01-23 04:20:00,
2013-01-22 22:25:00,33.8,18.9,30.35,NE,39,2.0,5.0,54,0.00,,---,0.00,VWS V14.01,2013-01-23 04:25:00,
2013-01-22 22:30:00,33.8,19.4,30.35,ENE,57,2.0,5.0,55,0.00,,---,0.00,VWS V14.01,2013-01-23 04:30:00,
2013-01-22 22:35:00,33.8,19.4,30.35,NE,43,0.0,2.0,55,0.00,,---,0.00,VWS V14.01,2013-01-23 04:35:00,
2013-01-22 22:40:00,33.8,19.4,30.34,NE,43,1.0,3.0,55,0.00,,---,0.00,VWS V14.01,2013-01-23 04:40:00,
2013-01-22 22:45:00,33.8,19.4,30.35,NE,43,1.0,3.0,55,0.00,,---,0.00,VWS V14.01,2013-01-23 04:45:00,
2013-01-22 22:50:00,33.8,19.8,30.35,NE,53,0.0,4.0,56,0.00,,---,0.00,VWS V14.01,2013-01-23 04:50:00,
2013-01-22 22:55:00,33.8,19.4,30.35,NE,48,0.0,4.0,55,0.00,,---,0.00,VWS V14.01,2013-01-23 04:55:00,
2013-01-22 23:00:00,33.8,19.8,30.35,North,11,2.0,4.0,56,0.00,,---,0.00,VWS V14.01,2013-01-23 05:00:00,
2013-01-22 23:02:00,33.8,19.8,30.35,NNE,21,0.0,4.0,56,0.00,,---,0.00,VWS V14.01,2013-01-23 05:02:00,
2013-01-22 23:03:00,33.8,19.8,30.35,NNE,21,0.0,4.0,56,0.00,,---,0.00,VWS V14.01,2013-01-23 05:03:00,
2013-01-22 23:08:00,33.7,19.7,30.34,NE,49,3.0,3.0,56,0.00,,---,0.00,VWS V14.01,2013-01-23 05:08:00,
2013-01-22 23:13:00,33.6,20.0,30.34,NNE,28,1.0,3.0,57,0.00,,---,0.00,VWS V14.01,2013-01-23 05:13:00,
2013-01-22 23:18:00,33.5,19.9,30.34,NNE,29,2.0,3.0,57,0.00,,---,0.00,VWS V14.01,2013-01-23 05:18:00,
2013-01-22 23:23:00,33.3,19.7,30.34,NNE,29,2.0,3.0,57,0.00,,---,0.00,VWS V14.01,2013-01-23 05:23:00,
2013-01-22 23:28:00,33.2,20.0,30.34,NNE,29,0.0,3.0,58,0.00,,---,0.00,VWS V14.01,2013-01-23 05:28:00,
2013-01-22 23:33:00,33.0,19.9,30.34,NNE,29,0.0,3.0,58,0.00,,---,0.00,VWS V14.01,2013-01-23 05:33:00,
2013-01-22 23:38:00,32.9,20.2,30.34,NNE,29,1.0,4.0,59,0.00,,---,0.00,VWS V14.01,2013-01-23 05:38:00,
2013-01-22 23:43:00,32.7,20.0,30.34,NNE,29,2.0,4.0,59,0.00,,---,0.00,VWS V14.01,2013-01-23 05:43:00,
2013-01-22 23:48:00,32.5,19.8,30.34,NNE,29,1.0,4.0,59,0.00,,---,0.00,VWS V14.01,2013-01-23 05:48:00,
2013-01-22 23:53:00,32.5,20.2,30.34,NE,45,2.0,4.0,60,0.00,,---,0.00,VWS V14.01,2013-01-23 05:53:00,
2013-01-22 23:58:00,32.4,20.1,30.34,NE,45,1.0,4.0,60,0.00,,---,0.00,VWS V14.01,2013-01-23 05:58:00,